Location: Arbon
(43.0005°N, 0.7472°E)
Time: 22:49:54
(UTC+00:00)

Altair - Pass Details

Date: 03 December 2020
Orbit: 1501 x 1682 km, 47.2° (Epoch: 26 January)

Event Time Altitude Azimuth Distance (km) Brightness Sun altitude
Rises 20:34:03 0° 256° (WSW) 4,737 10.7 -45.1°
Reaches altitude 10° 20:37:10 10° 258° (WSW) 3,732 10.0 -45.7°
Enters shadow 20:42:56 43° 267° (W) 2,045 8.2 -46.7°
Maximum altitude 20:46:35 77° 344° (NNW) 1,553 - -47.4°
Drops below altitude 10° 20:55:48 10° 71° (ENE) 3,656 - -49.0°
Sets 20:58:49 0° 73° (ENE) 4,637 - -49.5°
